Flag for Canada Weather past 2 weeks in Laval, Quebec, Canada

Now
68 °F

Fog.


Feels Like: 68 °F
Forecast: 67 / 79 °F
Wind: 5 mph from Southwest

Location: Montreal / Mirabel

Current Time: Sep 1, 2014 at 10:16:20 AM

Latest Report: Sep 1, 2014 at 9:00 AM


Visibility: 5 mi

Pressure: 29.95 "Hg

Humidity: 94%

Dew point: 66 °F

Location of LavalLocation

Historic Weather in Laval — Graph

°F

Laval temperature yesterday

Maximum temperature yesterday: 79 °F (at 1:00 PM)
Minimum temperature yesterday: 66 °F (at 12:00 AM)
Average temperature yesterday: 72 °F

Past Weeks' High & Low Weather Summary

 TemperatureHumidityPressure
High82 °F (Aug 24, 3:00 PM)100% (Aug 19, 12:00 AM)30.24 "Hg (Aug 19, 12:00 AM)
Low48 °F (Aug 18, 5:00 AM)43% (Aug 18, 3:00 PM)29.84 "Hg (Aug 17, 4:00 PM)
Average66 °F77%30.02 "Hg
* Reported Aug 17 9:00 AM — Sep 1 9:00 AM, Laval, Weather by CustomWeather, © 2014

Note: Actual official high and low records may vary slightly from our data, if they occured in-between our weather recording intervals... More about our weather records

Advertising

Laval weather history for previous 24 hours

 ConditionsComfort  
Time TempWeatherWind HumidityBarometerVisibility
9:00 AM
Sep 1
68 °FFog.5 mph94%29.95 "Hg5 mi
8:00 AM66 °FFog.3 mph100%29.94 "Hg3 mi
7:00 AM66 °FFog.5 mph94%29.94 "Hg2 mi
6:00 AM64 °FFog.3 mph100%29.93 "Hg1 mi
5:00 AM64 °FPartly cloudy.2 mph100%29.93 "Hg8 mi
4:51 AM64 °FPartly cloudy.3 mph100%29.92 "Hg8 mi
4:00 AM66 °FFog.5 mph100%29.91 "Hg5 mi
3:00 AM66 °FPassing clouds.3 mph100%29.90 "Hg10 mi
2:00 AM66 °FPartly cloudy.5 mph100%29.88 "Hg15 mi
1:00 AM68 °FMostly cloudy.2 mph94%29.88 "Hg15 mi
12:00 AM68 °FOvercast.7 mph94%29.89 "Hg15 mi
11:00 PM
Aug 31
70 °FMostly cloudy.5 mph83%29.88 "Hg15 mi
10:00 PM72 °FMostly cloudy.6 mph88%29.87 "Hg15 mi
9:00 PM72 °FMostly cloudy.7 mph94%29.87 "Hg10 mi
8:00 PM73 °FPartly sunny.7 mph89%29.86 "Hg10 mi
7:00 PM73 °FMostly cloudy.5 mph89%29.86 "Hg10 mi
6:00 PM73 °FOvercast.9 mph89%29.86 "Hg10 mi
5:00 PM75 °FMostly cloudy.10 mph83%29.84 "Hg8 mi
4:00 PM75 °FMostly cloudy.17 mph83%29.85 "Hg7 mi
3:00 PM77 °FMore clouds than sun.17 mph79%29.86 "Hg8 mi
2:00 PM79 °FCloudy.13 mph79%29.85 "Hg8 mi
1:00 PM79 °FFog.5 mph79%29.86 "Hg6 mi
12:00 PM75 °FFog.7 mph89%29.87 "Hg5 mi
11:00 AM73 °FFog.6 mph89%29.88 "Hg6 mi
10:00 AM72 °FFog.6 mph94%29.88 "Hg5 mi
Weather by CustomWeather, © 2014

See weather overviewHow to use our weather pages